CAPE
0 0 0 0 0 0 0 0 0 33 4 0 0 0 0 252 793 1048 1171 1218 1403 1422 1608 1253 1200 1070 691 655 630 646 726 842 1006 993 1056 939 677 630 544 342 555 586 709
0 0 0 0 0 0 0 0 1 29 146 28 18 0 141 377 825 1153 1228 1265 1317 1439 1486 1351 1248 1097 784 871 849 667 648 654 1415 1210 780 373 57 441 578 358 486 678 589
0 0 0 0 0 0 0 0 0 10 195 55 99 432 697 1299 1115 1266 1240 1419 1372 1460 1396 1324 1445 1420 956 763 868 874 703 1074 1353 1165 732 109 181 397 491 504 394 612 625
0 0 0 0 0 0 0 0 0 9 293 701 56 96 682 818 1079 1405 1470 1509 1417 1214 1340 1379 1335 1472 1138 870 858 869 987 1353 1136 891 611 508 244 132 202 472 573 646 703
0 0 0 0 0 0 0 0 0 16 94 266 60 16 809 916 1357 1431 1707 1296 1389 1452 1280 1418 1351 1287 1136 793 994 1479 1343 1065 864 481 443 165 107 144 122 73 541 724 726
0 0 0 0 0 0 0 0 0 1 98 589 796 976 1343 1402 1730 1545 1593 1730 1340 1335 1177 1250 1411 1266 928 1535 1616 1356 1281 1059 736 218 200 153 86 207 247 143 354 487 647
0 0 0 0 0 0 0 0 0 27 838 1062 894 1415 1750 2121 2034 2117 1384 1150 1130 1150 1285 1420 1225 1190 1682 1612 1370 1215 1099 941 459 292 139 49 119 101 131 418 519 392 352
0 0 0 0 0 0 1 207 475 972 1274 1016 1343 1638 2015 2001 2255 1613 1284 1425 1387 1500 1425 1567 1805 1698 1473 1136 1176 1016 764 413 319 298 231 309 234 233 217 447 532 311 303
0 0 0 0 0 12 783 1200 1414 1434 1249 1342 1548 1874 1875 2005 1641 1976 1902 1731 1893 1818 1707 1681 1511 1302 1065 1094 1117 476 303 235 305 478 475 405 375 386 245 321 210 261 99
176 33 0 18 617 1445 1778 1704 1642 1648 1701 1765 1872 2016 2190 2323 1972 2044 1656 1715 1877 1700 1644 1367 1204 1020 886 750 484 153 210 277 487 486 610 471 521 402 387 12 18 93 46
396 143 749 1341 1783 1997 2002 1994 1900 1849 1827 1879 1945 1905 1822 1648 1639 1439 1466 1318 1293 1098 959 850 791 652 415 256 272 458 374 344 635 573 434 418 613 262 143 63 24 0 14
862 978 1373 1756 1894 1958 1923 1903 1899 1855 1810 1778 1733 1716 1706 1510 1381 1130 1034 897 801 696 594 455 310 144 99 239 394 429 350 396 440 515 277 252 377 447 225 170 259 68 249
904 1287 2040 1641 1789 1762 1808 1768 1746 1727 1691 1647 1444 1324 1200 1146 1067 896 732 589 443 261 157 61 19 30 112 284 462 438 418 468 257 211 266 193 404 432 484 590 713 509 289
960 1196 1455 1623 1573 1483 1409 1384 1384 1273 1187 1128 1134 1051 996 877 732 530 388 244 144 61 49 56 48 44 123 280 508 461 233 371 62 485 352 173 379 496 620 727 774 696 582
754 1110 1303 1415 1483 1312 1179 1067 899 825 751 661 650 672 592 495 312 210 136 92 68 50 30 23 149 224 504 271 543 583 517 392 318 358 455 418 414 388 608 604 604 642 422
306 878 1225 1310 1149 1066 901 661 504 441 320 185 137 90 87 63 88 106 136 94 12 19 58 33 165 518 0 0 0 250 408 154 99 384 405 453 171 183 102 65 383 555 369
145 697 985 1035 1075 846 635 335 44 0 12 32 52 79 104 87 145 91 86 24 78 64 179 136 158 474 0 0 0 3 237 351 279 440 495 398 216 176 79 13 86 52 87
0 420 994 902 980 666 253 14 17 12 17 59 60 37 46 74 88 104 22 99 189 276 443 309 463 425 0 0 0 9 88 78 115 142 234 260 106 143 69 146 206 44 36
0 601 943 959 895 401 50 42 11 11 62 78 69 51 46 41 23 10 21 132 180 309 388 368 462 412 2 0 0 23 9 1 2 27 61 48 31 0 4 39 12 1 0
1 944 1003 792 807 194 62 44 15 55 150 107 46 52 49 43 32 40 51 114 103 222 215 342 361 54 3 0 0 7 0 1 0 0 0 0 0 0 0 0 0 1 1
1195 1208 1110 665 748 56 79 19 135 112 147 89 76 9 7 32 27 34 47 30 44 37 207 329 308 77 46 0 0 2 1 2 4 1 1 1 0 0 0 1 2 1 1
1105 852 913 768 308 98 48 42 258 150 224 107 42 44 4 4 64 210 65 46 80 317 329 327 153 78 2 0 0 0 0 0 2 3 2 0 0 0 0 0 0 0 2
671 864 751 575 214 100 10 329 191 162 46 130 103 127 48 103 166 321 324 267 242 135 195 154 144 7 3 0 0 0 0 2 8 2 0 0 0 0 0 0 0 1 2
359 852 610 464 129 2 127 282 90 121 60 43 71 94 94 203 309 322 434 716 722 570 417 112 58 10 3 2 2 0 0 0 0 0 0 0 0 0 0 0 1 3 3
1191 667 404 117 3 2 335 155 111 74 36 116 178 280 7 349 577 249 377 788 236 238 269 87 65 9 4 1 1 6 6 5 2 1 2 1 1 2 2 0 0 1 0
641 294 96 10 3 48 406 293 50 168 70 47 216 43 86 103 363 205 37 0 0 0 0 0 20 2 0 0 0 0 0 0 0 7 20 12 8 6 12 27 11 14 4
CIN
-0 -0 -0 -0 -0 -0 -0 -0 -2 -321 -304 -0 -1 -0 -1 -125 -140 -156 -177 -179 -186 -215 -198 -212 -196 -176 -228 -209 -188 -169 -114 -97 -18 -17 -10 -5 -2 -16 -3 -1 -5 -2 -2
-0 -0 -0 -0 -0 -0 -0 -0 -97 -315 -262 -310 -225 -0 -140 -88 -99 -137 -189 -221 -214 -195 -201 -190 -170 -188 -194 -166 -152 -188 -133 -82 -14 -1 -2 -17 -29 -4 -12 -1 -6 -1 -4
-0 -0 -0 -0 -0 -0 -0 -0 -0 -184 -278 -330 -252 -172 -120 -94 -67 -119 -202 -227 -215 -205 -193 -200 -128 -129 -154 -186 -160 -154 -100 -20 -4 -2 -2 -34 -6 -11 -4 -3 -1 -4 -5
-0 -0 -0 -0 -0 -0 -0 -0 -0 -242 -287 -220 -300 -198 -93 -83 -94 -109 -156 -217 -216 -256 -201 -171 -146 -106 -129 -140 -161 -111 -36 -2 -1 -1 -18 -6 -9 -1 -1 -3 -4 -3 -2
-0 -0 -0 -0 -0 -0 -0 -0 -0 -404 -358 -275 -334 -223 -112 -87 -100 -99 -174 -233 -223 -199 -195 -143 -127 -121 -106 -150 -89 -8 -3 -8 -1 -9 -3 -40 -23 -13 -6 -3 -1 -0 -3
-0 -0 -0 -0 -0 -0 -0 -0 -0 -154 -319 -235 -201 -146 -118 -74 -76 -119 -194 -166 -217 -195 -189 -137 -98 -91 -107 -17 -1 -2 -1 -4 -4 -22 -9 -18 -19 -1 -2 -1 -1 -4 -2
-0 -0 -0 -0 -0 -0 -0 -0 -0 -104 -193 -193 -196 -166 -109 -50 -62 -105 -214 -245 -228 -198 -141 -95 -100 -70 -2 -1 -1 -1 -1 -1 -4 -13 -5 -22 -16 -13 -4 -1 -1 -1 -5
-0 -0 -0 -0 -0 -0 -209 -214 -183 -165 -182 -220 -177 -138 -76 -59 -53 -132 -195 -141 -134 -94 -84 -36 -1 -1 -1 -2 -1 -1 -1 -13 -11 -7 -17 -1 -2 -5 -6 -1 -0 -1 -0
-0 -0 -0 -0 -0 -28 -98 -90 -81 -120 -180 -183 -153 -101 -86 -42 -100 -49 -48 -65 -30 -33 -13 -2 -1 -1 -3 -1 -0 -3 -11 -14 -3 -3 -2 -2 -5 -14 -3 -1 -4 -2 -5
-98 -152 -0 -81 -81 -37 -32 -51 -83 -102 -112 -102 -85 -56 -33 -28 -41 -23 -48 -42 -17 -11 -1 -1 -1 -1 -1 -1 -3 -22 -2 -1 -7 -8 -1 -1 -3 -5 -1 -9 -12 -27 -8
-16 -19 -11 -28 -3 -5 -26 -40 -57 -63 -62 -54 -55 -59 -64 -51 -32 -42 -28 -29 -24 -31 -18 -12 -8 -5 -15 -23 -7 -2 -1 -1 -1 -5 -1 -1 -5 -1 -19 -26 -31 -0 -26
-44 -92 -37 -0 -1 -2 -15 -21 -22 -26 -32 -37 -40 -38 -30 -29 -31 -37 -41 -51 -44 -33 -31 -38 -49 -83 -79 -7 -1 -1 -1 -1 -3 -3 -2 -1 -2 -1 -4 -7 -14 -21 -11
-59 -52 -9 -2 -2 -1 -2 -5 -9 -12 -22 -26 -37 -40 -43 -38 -27 -31 -34 -39 -47 -71 -99 -143 -142 -96 -27 -1 -1 -1 -1 -5 -8 -19 -5 -1 -2 -2 -6 -1 -1 -8 -13
-37 -33 -30 -2 -2 -1 -3 -3 -12 -20 -40 -53 -46 -44 -21 -11 -20 -30 -33 -73 -105 -175 -151 -104 -78 -50 -2 -1 -1 -1 -9 -2 -41 -2 -9 -1 -4 -1 -1 -1 -0 -2 -5
-22 -18 -9 -22 -3 -1 -3 -16 -36 -54 -64 -65 -68 -46 -39 -35 -56 -72 -97 -137 -146 -136 -101 -32 -9 -1 -3 -9 -3 -1 -1 -1 -10 -10 -1 -1 -5 -15 -2 -3 -6 -6 -4
-55 -11 -3 -5 -9 -2 -18 -47 -80 -94 -104 -114 -120 -155 -175 -204 -158 -126 -74 -105 -180 -111 -33 -52 -2 -3 -0 -0 -0 -31 -3 -4 -14 -2 -1 -24 -47 -44 -62 -84 -45 -8 -12
-66 -9 -10 -7 -9 -7 -44 -96 -187 -0 -205 -160 -153 -154 -146 -164 -101 -122 -123 -176 -67 -39 -6 -4 -2 -1 -0 -0 -0 -58 -12 -0 -4 -2 -1 -1 -25 -43 -71 -125 -89 -63 -46
-0 -34 -2 -19 -11 -19 -94 -224 -176 -146 -128 -116 -142 -183 -202 -172 -146 -128 -206 -96 -5 -3 -1 -1 -1 -2 -0 -0 -0 -65 -16 -18 -14 -15 -6 -3 -23 -20 -57 -44 -33 -37 -42
-0 -17 -8 -6 -13 -53 -172 -140 -130 -115 -97 -105 -120 -174 -224 -232 -271 -2 -184 -46 -3 -0 -0 -1 -1 -1 -0 -0 -0 -42 -49 -12 -50 -23 -10 -16 -24 -0 -13 -32 -52 -0 -0
-20 -3 -12 -14 -23 -99 -123 -95 -83 -66 -57 -83 -135 -175 -205 -254 -253 -163 -86 -18 -8 -1 -2 -1 -2 -25 -0 -0 -0 -47 -8 -0 -0 -0 -0 -0 -14 -0 -2 -1 -0 -0 -0
-1 -4 -1 -28 -11 -134 -86 -70 -25 -50 -50 -82 -122 -16 -3 -239 -213 -131 -59 -49 -12 -2 -1 -1 -0 -16 -29 -1 -0 -0 -44 -0 -0 -0 -0 -0 -0 -0 -1 -1 -1 -0 -0
-2 -10 -12 -15 -54 -93 -75 -59 -25 -48 -16 -64 -142 -142 -154 -28 -84 -1 -10 -1 -6 -0 -0 -0 -7 -13 -0 -0 -0 -0 -0 -0 -0 -0 -0 -0 -0 -0 -0 -1 -0 -0 -0
-16 -8 -3 -6 -64 -72 -1 -11 -25 -32 -31 -32 -35 -13 -64 -22 -2 -1 -2 -1 -1 -8 -1 -4 -2 -46 -0 -0 -0 -0 -0 -3 -1 -0 -0 -0 -0 -0 -0 -0 -0 -0 -0
-18 -10 -2 -20 -75 -2 -28 -15 -52 -35 -63 -58 -24 -12 -16 -2 -1 -4 -11 -0 -0 -1 -0 -9 -6 -1 -0 -0 -0 -0 -0 -0 -0 -0 -0 -0 -0 -0 -0 -0 -0 -0 -0
-14 -1 -4 -49 -2 -1 -5 -22 -25 -54 -64 -10 -5 -2 -2 -3 -2 -49 -37 -0 -8 -3 -2 -6 -5 -2 -0 -0 -0 -1 -1 -2 -0 -0 -0 -0 -0 -0 -0 -0 -0 -0 -0
-2 -10 -37 -83 -2 -33 -4 -3 -48 -16 -26 -29 -5 -15 -4 -3 -4 -8 -28 -0 -0 -0 -0 -0 -4 -7 -0 -0 -0 -0 -0 -2 -0 -1 -1 -23 -29 -0 -4 -2 -1 -2 -2
Wind_Speed
53 45 36 36 38 37 35 32 31 31 31 29 27 26 23 21 18 17 15 12 10 10 10 11 12 11 10 10 9 9 10 9 8 11 14 10 11 11 13 13 11 9 11
46 46 46 46 44 42 40 38 37 33 30 26 25 23 22 16 15 14 13 10 10 9 8 9 8 9 8 8 7 7 8 9 9 10 13 18 18 10 12 13 15 12 9
53 51 49 50 47 45 41 41 37 34 29 24 22 20 18 19 14 12 10 9 6 5 5 6 6 6 7 7 8 6 7 9 9 8 15 17 18 17 14 13 12 10 9
48 48 47 48 45 44 43 38 33 31 26 20 19 17 15 15 14 12 9 6 4 4 4 4 5 5 5 5 5 5 6 6 9 10 12 13 18 19 18 17 17 12 8
46 46 47 44 40 39 35 30 28 25 21 17 16 16 13 13 11 8 6 5 4 4 4 4 3 4 3 4 3 4 5 5 10 10 10 12 11 11 15 19 17 13 9
40 39 39 36 34 34 30 27 23 21 19 16 14 13 11 12 9 7 6 6 5 5 4 1 2 2 2 2 3 4 6 9 10 10 9 10 12 11 10 13 13 8 9
32 33 34 32 30 27 25 23 20 18 16 12 10 11 12 10 7 5 6 5 5 3 1 0 1 1 2 2 4 6 9 9 9 8 9 11 8 5 11 9 8 11 12
33 31 29 27 25 20 18 17 16 15 10 9 10 9 6 5 4 5 3 2 1 0 2 2 2 2 2 4 5 7 8 8 6 5 6 10 8 9 9 6 6 8 19
32 31 28 23 21 16 16 14 9 6 6 6 3 1 1 2 1 1 3 2 2 3 4 3 3 3 3 5 7 6 6 5 4 7 6 5 6 7 8 8 13 22 24
30 28 22 16 14 12 7 4 1 0 1 2 3 4 3 5 5 4 4 4 4 4 4 4 4 4 5 6 6 5 5 4 5 6 5 6 7 10 10 10 9 19 21
19 13 13 12 8 4 1 1 1 3 4 6 6 6 7 7 7 5 5 6 6 5 5 5 5 5 5 5 5 8 6 4 5 5 5 7 9 16 11 17 21 19 19
19 18 15 7 5 4 3 2 3 5 7 8 8 8 8 8 7 7 7 7 6 5 5 6 6 6 6 6 6 5 4 4 4 6 5 8 12 19 18 12 21 23 20
14 14 20 7 6 5 3 3 4 6 8 10 10 9 8 7 6 7 7 7 6 6 6 7 8 7 7 7 6 6 5 5 5 4 7 12 6 6 14 18 19 12 11
13 17 17 12 7 5 4 4 5 7 10 10 8 8 6 7 8 8 7 7 8 8 8 8 8 8 9 11 12 10 9 7 5 4 10 18 6 9 23 12 9 6 6
14 19 17 12 8 5 5 6 7 9 9 8 7 7 6 7 8 8 8 8 9 8 8 8 9 10 11 13 16 14 12 10 8 7 6 24 12 12 9 7 5 5 3
15 19 18 15 13 6 6 8 8 8 7 7 7 6 7 8 9 9 10 10 10 9 9 10 10 11 13 16 17 15 12 12 9 6 5 10 7 8 10 13 7 4 2
16 22 23 19 19 6 7 9 8 8 7 9 8 8 9 10 10 10 12 13 11 10 10 10 10 12 14 16 16 15 14 13 11 9 7 9 8 11 11 9 6 9 6
20 28 25 19 20 7 9 11 9 8 9 9 8 9 10 11 12 13 12 10 11 11 9 10 11 13 15 16 15 14 12 11 10 10 18 14 12 14 6 7 5 6 3
27 29 23 15 21 10 12 11 10 10 8 7 8 9 12 11 11 11 11 10 11 12 9 10 12 13 15 15 15 13 12 11 9 10 11 11 11 6 5 9 10 9 9
21 23 19 11 19 11 13 10 9 7 7 8 10 11 10 14 13 10 9 9 10 11 9 11 12 14 14 15 14 14 12 12 10 10 12 10 10 13 14 8 13 11 10
25 17 13 15 8 13 13 10 9 8 8 13 10 10 10 12 11 11 10 10 10 6 8 10 12 13 15 14 14 12 13 11 10 13 15 15 12 10 9 10 13 13 8
23 20 15 13 12 14 12 10 8 9 14 13 11 11 12 14 14 11 11 12 5 6 7 8 11 11 13 11 11 12 12 20 16 18 16 12 10 8 8 6 5 2 7
24 32 17 13 11 13 14 10 8 14 11 12 13 15 15 15 14 11 12 19 16 24 21 18 7 10 11 12 18 20 20 20 7 6 7 4 3 6 6 6 5 2 6
21 37 13 12 11 15 12 10 11 7 12 13 14 15 16 16 13 11 6 17 17 23 21 9 21 8 10 16 19 22 24 18 2 2 1 6 9 8 14 9 1 6 9
13 11 10 9 14 18 13 11 11 13 13 16 14 16 16 14 10 7 9 10 11 15 17 5 22 17 10 21 23 24 26 28 28 24 27 23 21 23 27 30 16 3 15
12 8 7 9 15 19 16 16 11 11 16 15 18 18 16 16 11 6 7 7 7 7 7 9 19 9 17 23 24 24 20 24 31 29 28 23 22 25 25 23 32 32 33
Wind_Direction
263 268 270 272 277 280 283 286 289 290 292 293 292 290 286 287 287 286 282 280 272 259 260 256 266 270 257 259 266 291 296 305 324 321 319 318 314 313 326 326 322 309 308
265 266 270 274 276 278 279 283 286 288 289 291 290 291 297 289 284 287 286 278 273 267 257 247 259 251 253 259 272 281 297 301 326 323 328 328 329 334 335 338 328 319 306
265 269 272 273 275 276 278 279 282 283 284 284 289 292 294 298 289 285 287 285 275 263 241 233 264 261 247 259 278 278 273 307 322 315 328 333 334 340 338 340 337 321 310
268 271 272 271 275 276 275 278 278 278 279 279 279 281 287 289 283 284 290 290 270 263 250 272 267 282 245 279 268 267 287 313 321 330 326 321 325 326 334 335 335 327 313
268 270 271 273 276 276 277 276 276 274 274 277 270 276 272 284 294 285 292 279 281 285 288 290 278 282 254 289 270 295 298 316 324 328 334 340 334 335 331 330 338 338 325
268 270 273 273 274 278 279 277 271 269 273 276 271 263 269 278 282 276 284 295 295 299 300 234 269 297 216 297 314 322 325 325 331 331 343 346 345 343 346 343 340 0 343
270 272 272 270 274 278 277 277 270 267 272 271 262 264 273 272 278 277 283 289 292 294 202 87 1 128 352 356 340 331 333 333 331 332 345 348 355 13 357 7 13 351 321
271 272 272 270 273 277 276 278 276 270 268 266 270 272 258 255 276 285 276 278 288 358 117 99 55 59 26 357 345 342 337 342 347 359 357 355 11 11 13 47 81 30 268
269 269 269 269 269 270 277 279 279 278 272 275 267 238 193 167 296 161 131 99 61 62 102 50 42 45 10 356 349 349 358 8 15 354 6 37 42 107 88 59 146 265 239
268 265 263 261 262 269 277 287 297 316 43 68 84 90 62 74 77 84 75 62 65 67 66 53 45 20 3 358 7 21 20 30 17 19 72 64 91 121 79 80 87 251 225
270 261 256 256 246 243 216 147 95 85 83 81 74 80 77 86 84 64 57 62 56 53 46 39 27 22 24 37 44 2 31 62 29 46 72 93 109 152 86 121 152 224 235
264 265 249 233 214 197 177 168 109 93 83 85 86 83 84 81 73 70 64 59 50 39 29 34 36 41 53 61 41 54 49 32 43 113 93 97 125 157 166 92 192 197 226
264 246 236 210 198 189 162 137 120 98 89 86 86 78 73 66 57 55 55 48 45 35 40 50 64 62 60 54 31 27 9 12 24 87 115 125 76 72 273 246 243 274 267
245 235 237 221 190 161 145 135 106 90 89 85 75 65 49 55 59 56 48 50 54 58 58 57 50 40 22 3 357 8 7 359 36 56 264 153 82 179 230 280 301 329 305
239 230 226 220 216 169 143 119 100 91 83 71 60 55 54 56 56 57 55 59 66 60 49 34 11 6 4 351 352 3 18 15 13 341 320 224 279 273 283 308 25 308 20
244 227 222 219 218 165 133 110 95 84 67 45 45 45 53 62 70 70 69 74 77 66 28 353 5 3 354 348 352 358 32 31 22 28 352 293 303 280 270 265 312 323 319
240 225 216 217 217 160 122 102 91 77 62 59 54 56 66 60 63 71 90 89 67 58 38 41 4 1 354 360 356 358 345 340 297 313 299 284 289 261 265 283 320 282 276
237 219 215 214 219 143 112 101 90 78 70 61 52 44 50 65 84 99 91 69 74 67 44 3 11 6 2 3 10 345 0 349 308 290 237 251 261 253 299 283 304 284 286
228 219 217 208 217 125 113 105 94 82 67 43 28 57 82 72 85 83 80 72 73 80 43 26 7 13 13 20 17 17 11 26 352 297 273 268 262 283 290 256 244 240 245
228 220 214 176 215 124 116 106 94 67 49 50 74 69 64 90 98 76 71 65 72 77 33 18 2 19 21 18 17 32 35 42 355 275 255 262 251 234 237 243 227 225 230
220 203 174 153 152 124 117 103 86 73 66 86 56 52 49 64 68 75 66 71 80 14 22 16 3 7 16 13 15 13 35 32 295 253 242 241 245 241 240 235 220 219 224
216 201 165 151 131 124 116 100 81 83 96 89 59 57 63 80 86 70 77 87 343 319 19 341 356 348 354 344 115 225 195 170 222 210 234 242 242 244 238 241 87 181 222
211 199 188 143 129 121 117 96 89 102 80 73 71 79 82 78 80 74 83 212 229 176 206 218 261 312 319 222 149 145 152 153 279 258 231 252 248 239 232 99 99 222 237
181 186 159 141 124 120 113 100 106 64 79 74 75 76 77 83 70 56 331 236 235 204 214 273 156 340 285 202 169 141 133 75 188 152 74 211 212 216 98 97 242 245 225
188 142 143 138 118 121 110 109 106 96 87 83 69 74 68 70 23 319 276 275 272 236 228 17 148 101 81 178 159 148 135 133 144 157 148 167 175 174 174 160 206 228 208
195 180 166 130 118 121 114 114 110 100 98 88 99 90 78 76 44 360 319 307 309 275 301 288 122 304 92 123 125 163 87 95 115 141 101 88 116 170 174 181 150 156 163